• In Sweden
  • List of Countries
  • For 7 days
  • Water Temperature
  • Satellite Maps
  • Weather Map
  • Weather Widgets
  • user-avatar
    Login

    Hourly Weather Ryazanovo

    Today, 22 October, Monday

    Time Temperature Precipitation Wind Pressure Humidity
    00:00 +3°C° 0 mm 1 mps 747 mmHg 86%
    01:00 +3°C° 0 mm 1 mps 747 mmHg 87%
    02:00 +2°C° 0 mm 2 mps 747 mmHg 90%
    03:00 +1°C° 0 mm 2 mps 746 mmHg 91%
    04:00 +1°C° 0 mm 2 mps 746 mmHg 92%
    05:00 +1°C° 0 mm 2 mps 746 mmHg 93%
    06:00 +1°C° 0 mm 2 mps 746 mmHg 90%
    07:00 +2°C° 0 mm 2 mps 746 mmHg 88%
    08:00 +1°C° 0 mm 3 mps 745 mmHg 86%
    09:00 +3°C° 0 mm 3 mps 745 mmHg 80%
    10:00 +4°C° 0 mm 3 mps 744 mmHg 74%
    11:00 +6°C° 0 mm 4 mps 744 mmHg 67%
    12:00 +6°C° 0 mm 4 mps 743 mmHg 66%
    13:00 +7°C° 0 mm 4 mps 743 mmHg 64%
    14:00 +7°C° 0 mm 4 mps 742 mmHg 62%
    15:00 +6°C° 0 mm 4 mps 742 mmHg 67%
    16:00 +5°C° 0 mm 4 mps 741 mmHg 72%
    17:00 +4°C° 0 mm 3 mps 740 mmHg 76%
    18:00 +4°C° 0 mm 4 mps 740 mmHg 77%
    19:00 +4°C° 0 mm 4 mps 739 mmHg 78%
    20:00 +4°C° 0 mm 4 mps 739 mmHg 79%
    21:00 +3°C° 0.1 mm 4 mps 738 mmHg 82%
    22:00 +3°C° 0.1 mm 4 mps 737 mmHg 84%
    23:00 +3°C° 0.1 mm 4 mps 737 mmHg 87%

    Tomorrow, 23 October, Tuesday

    Time Temperature Precipitation Wind Pressure Humidity
    00:00 +3°C° 0.5 mm 4 mps 737 mmHg 88%
    01:00 +4°C° 0.5 mm 4 mps 736 mmHg 90%
    02:00 +4°C° 0.5 mm 4 mps 736 mmHg 92%
    03:00 +4°C° 0.3 mm 3 mps 736 mmHg 93%
    04:00 +4°C° 0.3 mm 3 mps 735 mmHg 94%
    05:00 +4°C° 0.3 mm 3 mps 735 mmHg 94%
    06:00 +3°C° 0 mm 3 mps 735 mmHg 94%
    07:00 +4°C° 0 mm 2 mps 735 mmHg 94%
    08:00 +3°C° 0 mm 2 mps 735 mmHg 94%
    09:00 +4°C° 0 mm 2 mps 734 mmHg 87%
    10:00 +5°C° 0 mm 2 mps 734 mmHg 81%
    11:00 +6°C° 0 mm 2 mps 734 mmHg 74%
    12:00 +6°C° 0 mm 2 mps 733 mmHg 71%
    13:00 +7°C° 0 mm 2 mps 732 mmHg 67%
    14:00 +7°C° 0 mm 2 mps 732 mmHg 64%
    15:00 +6°C° 0 mm 2 mps 731 mmHg 68%
    16:00 +5°C° 0 mm 2 mps 730 mmHg 72%
    17:00 +5°C° 0 mm 2 mps 729 mmHg 77%
    18:00 +4°C° 0 mm 2 mps 728 mmHg 78%
    19:00 +3°C° 0 mm 3 mps 728 mmHg 79%
    20:00 +3°C° 0 mm 3 mps 727 mmHg 80%
    21:00 +3°C° 0 mm 3 mps 726 mmHg 81%
    22:00 +1°C° 0 mm 4 mps 725 mmHg 83%
    23:00 +1°C° 0 mm 4 mps 724 mmHg 84%

    Day after tomorrow, 24 October, Wednesday

    Time Temperature Precipitation Wind Pressure Humidity
    00:00 +1°C° 0 mm 4 mps 723 mmHg 85%
    01:00 +1°C° 0 mm 4 mps 722 mmHg 87%
    02:00 +1°C° 0 mm 5 mps 720 mmHg 88%
    03:00 +1°C° 0.4 mm 5 mps 719 mmHg 87%
    04:00 +1°C° 0.4 mm 5 mps 718 mmHg 87%
    05:00 +2°C° 0.4 mm 5 mps 717 mmHg 86%
    06:00 +2°C° 0.5 mm 5 mps 717 mmHg 86%
    07:00 +2°C° 0.5 mm 5 mps 716 mmHg 86%
    08:00 +3°C° 0.5 mm 4 mps 716 mmHg 87%
    09:00 +3°C° 0.5 mm 4 mps 716 mmHg 86%
    10:00 +4°C° 0.5 mm 3 mps 715 mmHg 86%
    11:00 +4°C° 0.5 mm 3 mps 715 mmHg 86%
    12:00 +4°C° 0.6 mm 3 mps 716 mmHg 86%
    13:00 +5°C° 0.6 mm 2 mps 716 mmHg 86%
    14:00 +5°C° 0.6 mm 2 mps 716 mmHg 87%
    15:00 +5°C° 0.3 mm 2 mps 716 mmHg 89%
    16:00 +5°C° 0.3 mm 2 mps 717 mmHg 91%
    17:00 +5°C° 0.3 mm 1 mps 717 mmHg 93%
    18:00 +4°C° 0.1 mm 2 mps 717 mmHg 93%
    19:00 +4°C° 0.1 mm 2 mps 718 mmHg 94%
    20:00 +4°C° 0.1 mm 2 mps 718 mmHg 94%
    21:00 +3°C° 0.2 mm 3 mps 719 mmHg 93%
    22:00 +3°C° 0.2 mm 3 mps 719 mmHg 93%
    23:00 +3°C° 0.2 mm 3 mps 719 mmHg 92%

    25 October, Thursday

    Time Temperature Precipitation Wind Pressure Humidity
    00:00 +3°C° 0.2 mm 3 mps 720 mmHg 91%
    01:00 +3°C° 0.2 mm 4 mps 720 mmHg 90%
    02:00 +3°C° 0.2 mm 4 mps 720 mmHg 88%
    03:00 +1°C° 0.1 mm 4 mps 720 mmHg 88%
    04:00 +1°C° 0.1 mm 5 mps 720 mmHg 87%
    05:00 +1°C° 0.1 mm 5 mps 721 mmHg 87%
    06:00 +1°C° 0 mm 5 mps 721 mmHg 86%
    07:00 +1°C° 0 mm 6 mps 721 mmHg 86%
    08:00 -1°C° 0 mm 6 mps 721 mmHg 86%
    09:00 +1°C° 0 mm 6 mps 721 mmHg 81%
    10:00 +2°C° 0 mm 6 mps 721 mmHg 77%
    11:00 +2°C° 0 mm 6 mps 720 mmHg 73%
    12:00 +2°C° 0 mm 7 mps 720 mmHg 70%
    13:00 +3°C° 0 mm 7 mps 720 mmHg 68%
    14:00 +3°C° 0 mm 7 mps 719 mmHg 65%
    15:00 +2°C° 0 mm 6 mps 720 mmHg 69%
    16:00 +1°C° 0 mm 6 mps 720 mmHg 73%
    17:00 0°C° 0 mm 5 mps 720 mmHg 77%
    18:00 0°C° 0 mm 5 mps 721 mmHg 79%
    19:00 0°C° 0 mm 5 mps 721 mmHg 81%
    20:00 -1°C° 0 mm 5 mps 721 mmHg 84%
    21:00 -1°C° 0 mm 5 mps 721 mmHg 85%
    22:00 -1°C° 0 mm 5 mps 722 mmHg 86%
    23:00 -1°C° 0 mm 5 mps 722 mmHg 87%

    26 October, Friday

    Time Temperature Precipitation Wind Pressure Humidity
    00:00 -1°C° 0 mm 5 mps 723 mmHg 88%
    01:00 -1°C° 0 mm 5 mps 723 mmHg 89%
    02:00 -1°C° 0 mm 5 mps 724 mmHg 90%
    03:00 -1°C° 0 mm 5 mps 724 mmHg 90%
    04:00 -1°C° 0 mm 5 mps 725 mmHg 89%
    05:00 -1°C° 0 mm 5 mps 725 mmHg 88%
    06:00 -1°C° 0 mm 5 mps 725 mmHg 87%
    07:00 -1°C° 0 mm 5 mps 726 mmHg 87%
    08:00 -1°C° 0 mm 5 mps 726 mmHg 86%
    09:00 0°C° 0 mm 5 mps 727 mmHg 83%
    10:00 +1°C° 0 mm 5 mps 727 mmHg 80%
    11:00 +1°C° 0 mm 5 mps 728 mmHg 77%
    12:00 +2°C° 0 mm 5 mps 728 mmHg 75%
    13:00 +2°C° 0 mm 5 mps 729 mmHg 73%
    14:00 +2°C° 0 mm 5 mps 729 mmHg 70%
    15:00 +2°C° 0 mm 5 mps 730 mmHg 71%
    16:00 +3°C° 0 mm 4 mps 730 mmHg 73%
    17:00 +2°C° 0 mm 3 mps 731 mmHg 74%
    18:00 +2°C° 0 mm 3 mps 731 mmHg 74%
    19:00 +2°C° 0 mm 3 mps 732 mmHg 73%
    20:00 +2°C° 0 mm 3 mps 733 mmHg 73%
    21:00 +1°C° 0 mm 3 mps 733 mmHg 77%
    22:00 +1°C° 0 mm 2 mps 733 mmHg 81%
    23:00 +1°C° 0 mm 2 mps 734 mmHg 84%

    27 October, Saturday

    Time Temperature Precipitation Wind Pressure Humidity
    00:00 +1°C° 0 mm 2 mps 734 mmHg 86%
    01:00 -1°C° 0 mm 2 mps 734 mmHg 89%
    02:00 -1°C° 0 mm 2 mps 734 mmHg 91%
    03:00 -1°C° 0 mm 3 mps 734 mmHg 91%
    04:00 -1°C° 0 mm 3 mps 734 mmHg 91%
    05:00 -1°C° 0 mm 3 mps 734 mmHg 91%
    06:00 -1°C° 0 mm 4 mps 734 mmHg 90%
    07:00 -1°C° 0 mm 4 mps 734 mmHg 88%
    08:00 0°C° 0 mm 5 mps 733 mmHg 86%
    09:00 +1°C° 0.1 mm 5 mps 733 mmHg 84%
    10:00 +2°C° 0.1 mm 6 mps 733 mmHg 82%
    11:00 +3°C° 0.1 mm 6 mps 733 mmHg 81%
    12:00 +3°C° 0.2 mm 6 mps 733 mmHg 81%
    13:00 +3°C° 0.2 mm 6 mps 732 mmHg 82%
    14:00 +5°C° 0.2 mm 5 mps 732 mmHg 83%
    15:00 +5°C° 0 mm 5 mps 732 mmHg 84%
    16:00 +5°C° 0 mm 4 mps 733 mmHg 85%
    17:00 +5°C° 0 mm 4 mps 733 mmHg 86%
    18:00 +5°C° 0 mm 4 mps 733 mmHg 86%
    19:00 +4°C° 0 mm 3 mps 733 mmHg 87%
    20:00 +4°C° 0 mm 3 mps 733 mmHg 88%
    21:00 +3°C° 0 mm 3 mps 733 mmHg 90%
    22:00 +4°C° 0 mm 2 mps 733 mmHg 91%
    23:00 +3°C° 0 mm 2 mps 733 mmHg 92%

    28 October, Sunday

    Time Temperature Precipitation Wind Pressure Humidity
    00:00 +3°C° 0 mm 2 mps 733 mmHg 93%
    01:00 +3°C° 0 mm 2 mps 733 mmHg 94%
    02:00 +3°C° 0 mm 2 mps 733 mmHg 94%
    03:00 +2°C° 0 mm 3 mps 733 mmHg 94%
    04:00 +3°C° 0 mm 3 mps 732 mmHg 94%
    05:00 +3°C° 0 mm 3 mps 732 mmHg 94%
    06:00 +4°C° 0.2 mm 4 mps 731 mmHg 93%
    07:00 +5°C° 0.2 mm 5 mps 731 mmHg 93%
    08:00 +6°C° 0.2 mm 5 mps 731 mmHg 92%
    09:00 +7°C° 0.3 mm 6 mps 731 mmHg 89%
    10:00 +8°C° 0.3 mm 6 mps 730 mmHg 86%
    11:00 +9°C° 0.3 mm 6 mps 730 mmHg 83%
    12:00 +10°C° 0 mm 6 mps 730 mmHg 79%
    13:00 +11°C° 0 mm 6 mps 730 mmHg 75%
    14:00 +13°C° 0 mm 6 mps 730 mmHg 71%
    15:00 +13°C° 0 mm 6 mps 730 mmHg 71%
    16:00 +13°C° 0 mm 6 mps 730 mmHg 72%
    17:00 +13°C° 0 mm 6 mps 730 mmHg 73%
    18:00 +13°C° 0 mm 6 mps 730 mmHg 75%
    19:00 +13°C° 0 mm 6 mps 731 mmHg 77%
    20:00 +11°C° 0 mm 6 mps 731 mmHg 78%
    21:00 +10°C° 0 mm 6 mps 732 mmHg 80%
    22:00 +9°C° 0 mm 5 mps 733 mmHg 82%
    23:00 +8°C° 0 mm 5 mps 733 mmHg 83%
    Show more